| time (UTC) | temp F | wind direction | speed MPH | gust MPH | rain 1hr in | rain 24hr in | rain mn in | humidity % | barometer mb |
| 20260905135604 | 93 | 114 | 5.0 | 12.0 | 0.00 | 0.00 | 0.00 | 43 | 1017.4 |
| 20260905135104 | 93 | 117 | 3.0 | 10.0 | 0.00 | 0.00 | 0.00 | 43 | 1017.5 |
| 20260905134603 | 93 | 109 | 3.0 | 8.0 | 0.00 | 0.00 | 0.00 | 45 | 1017.5 |
| 20260905134104 | 93 | 109 | 5.0 | 7.0 | 0.00 | 0.00 | 0.00 | 44 | 1017.5 |
| 20260905133604 | 92 | 122 | 6.0 | 10.0 | 0.00 | 0.00 | 0.00 | 46 | 1017.6 |
| 20260905133104 | 93 | 114 | 6.0 | 12.0 | 0.00 | 0.00 | 0.00 | 45 | 1017.6 |
| 20260905132604 | 93 | 120 | 6.0 | 9.0 | 0.00 | 0.00 | 0.00 | 44 | 1017.6 |
| 20260905132104 | 93 | 120 | 5.0 | 10.0 | 0.00 | 0.00 | 0.00 | 45 | 1017.8 |
| 20260905131604 | 93 | 109 | 5.0 | 10.0 | 0.00 | 0.00 | 0.00 | 45 | 1017.8 |
| 20260905131104 | 93 | 118 | 3.0 | 9.0 | 0.00 | 0.00 | 0.00 | 45 | 1017.8 |
| 20260905130604 | 93 | 123 | 2.0 | 8.0 | 0.00 | 0.00 | 0.00 | 45 | 1017.9 |
| 20260905130104 | 93 | 46 | 2.0 | 5.0 | 0.00 | 0.00 | 0.00 | 46 | 1017.9 |
| 20260905125604 | 93 | 149 | 2.0 | 6.0 | 0.00 | 0.00 | 0.00 | 45 | 1017.9 |
| 20260905125104 | 93 | 137 | 3.0 | 5.0 | 0.00 | 0.00 | 0.00 | 46 | 1017.9 |
| 20260905124604 | 93 | 129 | 3.0 | 6.0 | 0.00 | 0.00 | 0.00 | 46 | 1017.9 |
| 20260905124103 | 93 | 141 | 2.0 | 6.0 | 0.00 | 0.00 | 0.00 | 46 | 1017.9 |
| 20260905123604 | 93 | 117 | 2.0 | 6.0 | 0.00 | 0.00 | 0.00 | 46 | 1018.0 |
| 20260905123104 | 93 | 75 | 3.0 | 6.0 | 0.00 | 0.00 | 0.00 | 46 | 1018.0 |
| 20260905122603 | 93 | 155 | 3.0 | 6.0 | 0.00 | 0.00 | 0.00 | 47 | 1018.0 |
| 20260905122104 | 93 | 132 | 3.0 | 7.0 | 0.00 | 0.00 | 0.00 | 47 | 1018.1 |
| 20260905121604 | 92 | 133 | 3.0 | 6.0 | 0.00 | 0.00 | 0.00 | 47 | 1018.1 |
| 20260905120604 | 92 | 157 | 5.0 | 8.0 | 0.00 | 0.00 | 0.00 | 48 | 1018.2 |
| 20260905120103 | 92 | 133 | 3.0 | 12.0 | 0.00 | 0.00 | 0.00 | 48 | 1018.2 |
| 20260905115604 | 92 | 129 | 3.0 | 7.0 | 0.00 | 0.00 | 0.00 | 48 | 1018.2 |
| 20260905115104 | 92 | 154 | 4.0 | 5.0 | 0.00 | 0.00 | 0.00 | 49 | 1018.2 |
| 20260905114604 | 91 | 122 | 5.0 | 6.0 | 0.00 | 0.00 | 0.00 | 48 | 1018.2 |
| 20260905114104 | 91 | 108 | 3.0 | 8.0 | 0.00 | 0.00 | 0.00 | 48 | 1018.2 |
| 20260905113604 | 92 | 108 | 2.0 | 8.0 | 0.00 | 0.00 | 0.00 | 48 | 1018.3 |
| 20260905113104 | 92 | 120 | 2.0 | 6.0 | 0.00 | 0.00 | 0.00 | 49 | 1018.3 |
| 20260905112104 | 92 | 145 | 2.0 | 6.0 | 0.00 | 0.00 | 0.00 | 48 | 1018.5 |
| 20260905111604 | 92 | 138 | 2.0 | 6.0 | 0.00 | 0.00 | 0.00 | 49 | 1018.5 |
| 20260905111104 | 91 | 125 | 3.0 | 5.0 | 0.00 | 0.00 | 0.00 | 48 | 1018.5 |
| 20260905110604 | 91 | 138 | 3.0 | 7.0 | 0.00 | 0.00 | 0.00 | 49 | 1018.4 |
| 20260905110104 | 91 | 142 | 3.0 | 8.0 | 0.00 | 0.00 | 0.00 | 50 | 1018.4 |
| 20260905105604 | 90 | 148 | 3.0 | 6.0 | 0.00 | 0.00 | 0.00 | 50 | 1018.4 |
| 20260905105104 | 90 | 146 | 3.0 | 7.0 | 0.00 | 0.00 | 0.00 | 50 | 1018.5 |
| 20260905104604 | 90 | 111 | 3.0 | 9.0 | 0.00 | 0.00 | 0.00 | 50 | 1018.5 |
| 20260905104104 | 90 | 302 | 3.0 | 7.0 | 0.00 | 0.00 | 0.00 | 50 | 1018.5 |
| 20260905103604 | 91 | 136 | 3.0 | 6.0 | 0.00 | 0.00 | 0.00 | 50 | 1018.5 |
| 20260905103104 | 91 | 186 | 2.0 | 6.0 | 0.00 | 0.00 | 0.00 | 50 | 1018.5 |
| 20260905102604 | 91 | 114 | 2.0 | 6.0 | 0.00 | 0.00 | 0.00 | 50 | 1018.5 |
| 20260905102104 | 90 | 134 | 2.0 | 5.0 | 0.00 | 0.00 | 0.00 | 50 | 1018.7 |
| 20260905101604 | 90 | 153 | 2.0 | 7.0 | 0.00 | 0.00 | 0.00 | 52 | 1018.7 |
| 20260905100604 | 89 | 107 | 2.0 | 6.0 | 0.00 | 0.00 | 0.00 | 51 | 1018.7 |
| 20260905095604 | 89 | 102 | 3.0 | 5.0 | 0.00 | 0.00 | 0.00 | 52 | 1018.7 |
| 20260905095104 | 89 | 108 | 3.0 | 8.0 | 0.00 | 0.00 | 0.00 | 51 | 1018.7 |
| 20260905094604 | 89 | 132 | 3.0 | 5.0 | 0.00 | 0.00 | 0.00 | 52 | 1018.7 |
| 20260905094104 | 89 | 124 | 3.0 | 8.0 | 0.00 | 0.00 | 0.00 | 53 | 1018.7 |
| 20260905093604 | 88 | 114 | 3.0 | 7.0 | 0.00 | 0.00 | 0.00 | 53 | 1018.8 |
| 20260905092604 | 89 | 105 | 2.0 | 8.0 | 0.00 | 0.00 | 0.00 | 53 | 1018.8 |
| 20260905092104 | 89 | 117 | 2.0 | 8.0 | 0.00 | 0.00 | 0.00 | 52 | 1018.7 |
| 20260905091605 | 88 | 138 | 2.0 | 6.0 | 0.00 | 0.00 | 0.00 | 52 | 1018.7 |
| 20260905091104 | 88 | 147 | 2.0 | 6.0 | 0.00 | 0.00 | 0.00 | 53 | 1018.7 |
| 20260905090604 | 88 | 291 | 2.0 | 6.0 | 0.00 | 0.00 | 0.00 | 54 | 1018.7 |
| 20260905085604 | 87 | 73 | 2.0 | 5.0 | 0.00 | 0.00 | 0.00 | 55 | 1018.7 |
| 20260905085104 | 87 | 208 | 2.0 | 6.0 | 0.00 | 0.00 | 0.00 | 56 | 1018.5 |
| 20260905084604 | 87 | 110 | 2.0 | 5.0 | 0.00 | 0.00 | 0.00 | 55 | 1018.5 |
| 20260905084104 | 86 | 125 | 3.0 | 6.0 | 0.00 | 0.00 | 0.00 | 56 | 1018.5 |
| 20260905083604 | 86 | 214 | 3.0 | 6.0 | 0.00 | 0.00 | 0.00 | 57 | 1018.4 |
| 20260905083104 | 86 | 122 | 2.0 | 6.0 | 0.00 | 0.00 | 0.00 | 57 | 1018.4 |
| 20260905082604 | 86 | 148 | 2.0 | 6.0 | 0.00 | 0.00 | 0.00 | 57 | 1018.4 |
| 20260905082104 | 85 | 113 | 2.0 | 5.0 | 0.00 | 0.00 | 0.00 | 58 | 1018.4 |
| 20260905081604 | 85 | 138 | 2.0 | 6.0 | 0.00 | 0.00 | 0.00 | 58 | 1018.4 |
| 20260905080604 | 84 | 128 | 2.0 | 6.0 | 0.00 | 0.00 | 0.00 | 59 | 1018.5 |
| 20260905080104 | 84 | 109 | 2.0 | 5.0 | 0.00 | 0.00 | 0.00 | 59 | 1018.5 |
| 20260905075603 | 84 | 130 | 2.0 | 7.0 | 0.00 | 0.00 | 0.00 | 60 | 1018.5 |
| 20260905075104 | 84 | 122 | 2.0 | 5.0 | 0.00 | 0.00 | 0.00 | 60 | 1018.4 |
| 20260905074604 | 83 | 141 | 2.0 | 5.0 | 0.00 | 0.00 | 0.00 | 60 | 1018.4 |
| 20260905073604 | 83 | 159 | 2.0 | 5.0 | 0.00 | 0.00 | 0.00 | 61 | 1018.3 |
| 20260905073103 | 83 | 114 | 2.0 | 6.0 | 0.00 | 0.00 | 0.00 | 62 | 1018.3 |
| 20260905072604 | 82 | 114 | 2.0 | 6.0 | 0.00 | 0.00 | 0.00 | 63 | 1018.3 |
| 20260905072104 | 81 | 133 | 1.0 | 5.0 | 0.00 | 0.00 | 0.00 | 65 | 1018.6 |
| 20260905071603 | 80 | 291 | 1.0 | 2.0 | 0.00 | 0.00 | 0.00 | 66 | 1018.6 |
| 20260905071105 | 80 | 285 | 0.0 | 3.0 | 0.00 | 0.00 | 0.00 | 66 | 1018.6 |
| 20260905070104 | 78 | 104 | 0.0 | 2.0 | 0.00 | 0.00 | 0.00 | 70 | 1018.5 |
| 20260905065604 | 77 | 105 | 0.0 | 2.0 | 0.00 | 0.00 | 0.00 | 71 | 1018.5 |
| 20260905065104 | 77 | 103 | 1.0 | 2.0 | 0.00 | 0.00 | 0.00 | 73 | 1018.4 |
| 20260905064604 | 76 | 115 | 1.0 | 2.0 | 0.00 | 0.00 | 0.00 | 74 | 1018.4 |
| 20260905064103 | 75 | 110 | 1.0 | 2.0 | 0.00 | 0.00 | 0.00 | 74 | 1018.4 |
| 20260905063604 | 75 | 109 | 1.0 | 2.0 | 0.00 | 0.00 | 0.00 | 75 | 1018.3 |
| 20260905063104 | 75 | 109 | 0.0 | 2.0 | 0.00 | 0.00 | 0.00 | 75 | 1018.3 |
| 20260905062604 | 74 | 110 | 0.0 | 2.0 | 0.00 | 0.00 | 0.00 | 76 | 1018.3 |
| 20260905062103 | 74 | 110 | 0.0 | 2.0 | 0.00 | 0.00 | 0.00 | 77 | 1018.3 |
| 20260905061604 | 74 | 110 | 0.0 | 2.0 | 0.00 | 0.00 | 0.00 | 78 | 1018.3 |
| 20260905061104 | 73 | 110 | 0.0 | 2.0 | 0.00 | 0.00 | 0.00 | 78 | 1018.3 |
| 20260905060604 | 73 | 110 | 0.0 | 1.0 | 0.00 | 0.00 | 0.00 | 79 | 1018.1 |
| 20260905060104 | 72 | 110 | 0.0 | 2.0 | 0.00 | 0.00 | 0.00 | 79 | 1018.1 |
| 20260905055603 | 72 | 110 | 0.0 | 1.0 | 0.00 | 0.00 | 0.00 | 80 | 1018.1 |
| 20260905054604 | 71 | 110 | 1.0 | 2.0 | 0.00 | 0.00 | 0.00 | 80 | 1017.9 |
| 20260905053604 | 70 | 130 | 0.0 | 2.0 | 0.00 | 0.00 | 0.00 | 80 | 1017.8 |
| 20260905052604 | 70 | 130 | 0.0 | 2.0 | 0.00 | 0.00 | 0.00 | 77 | 1017.8 |
| 20260905051604 | 70 | 130 | 0.0 | 0.0 | 0.00 | 0.00 | 0.00 | 74 | 1017.7 |
| 20260905051104 | 70 | 130 | 0.0 | 0.0 | 0.00 | 0.00 | 0.00 | 74 | 1017.7 |
| 20260905050604 | 70 | 130 | 0.0 | 0.0 | 0.00 | 0.00 | 0.00 | 74 | 1017.6 |
| 20260905050104 | 70 | 130 | 0.0 | 0.0 | 0.00 | 0.00 | 0.00 | 73 | 1017.6 |
| 20260905045604 | 70 | 130 | 0.0 | 0.0 | 0.00 | 0.00 | 0.00 | 72 | 1017.6 |
| 20260905045103 | 70 | 130 | 0.0 | 0.0 | 0.00 | 0.00 | 0.00 | 71 | 1017.3 |
| 20260905044603 | 69 | 130 | 0.0 | 2.0 | 0.00 | 0.00 | 0.00 | 70 | 1017.3 |
| 20260905044104 | 69 | 130 | 0.0 | 2.0 | 0.00 | 0.00 | 0.00 | 69 | 1017.3 |
| 20260905043604 | 70 | 130 | 0.0 | 0.0 | 0.00 | 0.00 | 0.00 | 67 | 1017.2 |
| 20260905043104 | 70 | 130 | 0.0 | 0.0 | 0.00 | 0.00 | 0.00 | 66 | 1017.2 |
| 20260905042104 | 70 | 130 | 0.0 | 2.0 | 0.00 | 0.00 | 0.00 | 66 | 1017.5 |
| 20260905041604 | 70 | 130 | 0.0 | 2.0 | 0.00 | 0.00 | 0.00 | 65 | 1017.5 |
| 20260905041104 | 70 | 130 | 0.0 | 1.0 | 0.00 | 0.00 | 0.00 | 65 | 1017.5 |
| 20260905040604 | 70 | 130 | 0.0 | 2.0 | 0.00 | 0.00 | 0.00 | 64 | 1017.5 |
| 20260905040104 | 70 | 130 | 0.0 | 0.0 | 0.00 | 0.00 | 0.00 | 63 | 1017.5 |
| 20260905035604 | 70 | 130 | 0.0 | 0.0 | 0.00 | 0.00 | 0.00 | 62 | 1017.5 |
| 20260905035103 | 70 | 130 | 1.0 | 1.0 | 0.00 | 0.00 | 0.00 | 61 | 1017.4 |
| 20260905034604 | 70 | 130 | 1.0 | 2.0 | 0.00 | 0.00 | 0.00 | 60 | 1017.4 |
| 20260905034104 | 70 | 130 | 0.0 | 3.0 | 0.00 | 0.00 | 0.00 | 59 | 1017.4 |
| 20260905033604 | 70 | 133 | 0.0 | 3.0 | 0.00 | 0.00 | 0.00 | 59 | 1017.5 |
| 20260905033104 | 70 | 134 | 0.0 | 2.0 | 0.00 | 0.00 | 0.00 | 57 | 1017.5 |
| 20260905032604 | 70 | 134 | 0.0 | 2.0 | 0.00 | 0.00 | 0.00 | 58 | 1017.5 |
| 20260905032104 | 70 | 135 | 0.0 | 2.0 | 0.00 | 0.00 | 0.00 | 58 | 1017.4 |
| 20260905031603 | 70 | 134 | 0.0 | 1.0 | 0.00 | 0.00 | 0.00 | 59 | 1017.4 |
| 20260905030604 | 70 | 134 | 0.0 | 2.0 | 0.00 | 0.00 | 0.00 | 59 | 1017.5 |
| 20260905030104 | 70 | 134 | 0.0 | 1.0 | 0.00 | 0.00 | 0.00 | 58 | 1017.5 |
| 20260905025104 | 70 | 134 | 0.0 | 0.0 | 0.00 | 0.00 | 0.00 | 59 | 1017.8 |
| 20260905024604 | 71 | 134 | 0.0 | 2.0 | 0.00 | 0.00 | 0.00 | 58 | 1017.8 |
| 20260905024104 | 71 | 134 | 0.0 | 1.0 | 0.00 | 0.00 | 0.00 | 59 | 1017.8 |
| 20260905023604 | 71 | 135 | 0.0 | 2.0 | 0.00 | 0.00 | 0.00 | 58 | 1017.7 |
| 20260905023104 | 71 | 134 | 0.0 | 2.0 | 0.00 | 0.00 | 0.00 | 57 | 1017.7 |
| 20260905021603 | 71 | 134 | 0.0 | 2.0 | 0.00 | 0.00 | 0.00 | 57 | 1017.7 |
| 20260905020104 | 71 | 134 | 1.0 | 2.0 | 0.00 | 0.00 | 0.00 | 57 | 1017.6 |
| 20260905015603 | 71 | 134 | 1.0 | 1.0 | 0.00 | 0.00 | 0.00 | 56 | 1017.6 |
| 20260905015104 | 71 | 135 | 2.0 | 2.0 | 0.00 | 0.00 | 0.00 | 56 | 1017.9 |
| 20260905014104 | 72 | 134 | 2.0 | 3.0 | 0.00 | 0.00 | 0.00 | 55 | 1017.9 |
| 20260905013104 | 72 | 135 | 2.0 | 2.0 | 0.00 | 0.00 | 0.00 | 53 | 1017.8 |
| 20260905012603 | 72 | 134 | 2.0 | 5.0 | 0.00 | 0.00 | 0.00 | 53 | 1017.8 |
| 20260905012103 | 73 | 139 | 1.0 | 5.0 | 0.00 | 0.00 | 0.00 | 52 | 1018.0 |
| 20260905011603 | 73 | 151 | 1.0 | 2.0 | 0.00 | 0.00 | 0.00 | 51 | 1018.0 |
| 20260905011103 | 73 | 152 | 0.0 | 2.0 | 0.00 | 0.00 | 0.00 | 50 | 1018.0 |
| 20260905010604 | 74 | 152 | 0.0 | 2.0 | 0.00 | 0.00 | 0.00 | 50 | 1017.9 |
| 20260905010104 | 74 | 152 | 0.0 | 2.0 | 0.00 | 0.00 | 0.00 | 49 | 1017.9 |
| 20260905005103 | 74 | 152 | 0.0 | 0.0 | 0.00 | 0.00 | 0.00 | 47 | 1017.9 |
| 20260905004104 | 75 | 152 | 2.0 | 0.0 | 0.00 | 0.00 | 0.00 | 46 | 1017.9 |
| 20260905003604 | 75 | 152 | 2.0 | 1.0 | 0.00 | 0.00 | 0.00 | 46 | 1017.9 |
| 20260905003104 | 75 | 152 | 1.0 | 3.0 | 0.00 | 0.00 | 0.00 | 46 | 1017.9 |
| 20260905002604 | 75 | 142 | 0.0 | 3.0 | 0.00 | 0.00 | 0.00 | 45 | 1017.9 |
| 20260905002104 | 75 | 158 | 0.0 | 0.0 | 0.00 | 0.00 | 0.00 | 45 | 1017.9 |
| 20260905001603 | 75 | 158 | 0.0 | 2.0 | 0.00 | 0.00 | 0.00 | 45 | 1017.9 |
| 20260905001104 | 75 | 158 | 0.0 | 1.0 | 0.00 | 0.00 | 0.00 | 44 | 1017.9 |
| 20260905000603 | 75 | 158 | 0.0 | 2.0 | 0.00 | 0.00 | 0.00 | 44 | 1017.9 |
| 20260904235104 | 76 | 152 | 1.0 | 2.0 | 0.00 | 0.00 | 0.00 | 44 | 1017.8 |
| 20260904234104 | 76 | 157 | 0.0 | 2.0 | 0.00 | 0.00 | 0.00 | 44 | 1017.8 |
| 20260904233104 | 77 | 157 | 0.0 | 2.0 | 0.00 | 0.00 | 0.00 | 43 | 1018.0 |
| 20260904232603 | 77 | 157 | 0.0 | 2.0 | 0.00 | 0.00 | 0.00 | 42 | 1018.0 |
| 20260904232105 | 77 | 174 | 0.0 | 3.0 | 0.00 | 0.00 | 0.00 | 41 | 1018.1 |
| 20260904231604 | 77 | 201 | 0.0 | 2.0 | 0.00 | 0.00 | 0.00 | 41 | 1018.1 |
| 20260904231104 | 78 | 201 | 2.0 | 2.0 | 0.00 | 0.00 | 0.00 | 40 | 1018.1 |
| 20260904225605 | 78 | 163 | 2.0 | 5.0 | 0.00 | 0.00 | 0.00 | 39 | 1018.1 |
| 20260904225104 | 78 | 129 | 2.0 | 5.0 | 0.00 | 0.00 | 0.00 | 38 | 1017.9 |
| 20260904224106 | 78 | 158 | 1.0 | 3.0 | 0.00 | 0.00 | 0.00 | 37 | 1017.9 |
| 20260904223604 | 78 | 160 | 1.0 | 5.0 | 0.00 | 0.00 | 0.00 | 36 | 1017.9 |
| 20260904221605 | 78 | 153 | 2.0 | 2.0 | 0.00 | 0.00 | 0.00 | 36 | 1018.0 |
| 20260904221105 | 78 | 153 | 2.0 | 5.0 | 0.00 | 0.00 | 0.00 | 36 | 1018.0 |
| 20260904220606 | 78 | 139 | 2.0 | 5.0 | 0.00 | 0.00 | 0.00 | 36 | 1018.0 |
| 20260904220105 | 78 | 130 | 2.0 | 3.0 | 0.00 | 0.00 | 0.00 | 37 | 1018.0 |
| 20260904215604 | 78 | 142 | 2.0 | 5.0 | 0.00 | 0.00 | 0.00 | 37 | 1018.0 |
| 20260904215104 | 78 | 142 | 2.0 | 5.0 | 0.00 | 0.00 | 0.00 | 37 | 1017.9 |
| 20260904214606 | 78 | 179 | 2.0 | 3.0 | 0.00 | 0.00 | 0.00 | 37 | 1017.9 |
| 20260904214103 | 78 | 112 | 2.0 | 5.0 | 0.00 | 0.00 | 0.00 | 38 | 1017.9 |
| 20260904213603 | 78 | 127 | 2.0 | 5.0 | 0.00 | 0.00 | 0.00 | 38 | 1018.0 |
| 20260904212604 | 79 | 144 | 2.0 | 3.0 | 0.00 | 0.00 | 0.00 | 38 | 1018.0 |
| 20260904212104 | 79 | 137 | 2.0 | 5.0 | 0.00 | 0.00 | 0.00 | 37 | 1018.1 |
| 20260904211104 | 79 | 164 | 2.0 | 5.0 | 0.00 | 0.00 | 0.00 | 37 | 1018.1 |
| 20260904210104 | 79 | 148 | 2.0 | 3.0 | 0.00 | 0.00 | 0.00 | 36 | 1018.3 |
| 20260904205103 | 79 | 135 | 2.0 | 3.0 | 0.00 | 0.00 | 0.00 | 34 | 1018.3 |
| 20260904203604 | 79 | 178 | 2.0 | 3.0 | 0.00 | 0.00 | 0.00 | 33 | 1018.4 |
| 20260904203104 | 79 | 147 | 2.0 | 5.0 | 0.00 | 0.00 | 0.00 | 33 | 1018.4 |
| 20260904202606 | 79 | 141 | 2.0 | 3.0 | 0.00 | 0.00 | 0.00 | 33 | 1018.4 |
| 20260904202103 | 79 | 156 | 1.0 | 6.0 | 0.00 | 0.00 | 0.00 | 32 | 1018.2 |
| 20260904201604 | 79 | 169 | 1.0 | 5.0 | 0.00 | 0.00 | 0.00 | 33 | 1018.2 |
| 20260904201105 | 80 | 171 | 1.0 | 2.0 | 0.00 | 0.00 | 0.00 | 32 | 1018.2 |
| 20260904200604 | 80 | 171 | 1.0 | 2.0 | 0.00 | 0.00 | 0.00 | 33 | 1018.2 |
| 20260904200105 | 80 | 195 | 2.0 | 3.0 | 0.00 | 0.00 | 0.00 | 32 | 1018.2 |
| 20260904195604 | 80 | 133 | 2.0 | 3.0 | 0.00 | 0.00 | 0.00 | 33 | 1018.2 |
| 20260904195104 | 80 | 128 | 2.0 | 2.0 | 0.00 | 0.00 | 0.00 | 33 | 1018.1 |
| 20260904194604 | 80 | 157 | 2.0 | 6.0 | 0.00 | 0.00 | 0.00 | 33 | 1018.1 |
| 20260904194104 | 80 | 127 | 2.0 | 5.0 | 0.00 | 0.00 | 0.00 | 33 | 1018.1 |
| 20260904193604 | 81 | 131 | 2.0 | 3.0 | 0.00 | 0.00 | 0.00 | 33 | 1018.1 |
| 20260904193104 | 81 | 137 | 2.0 | 6.0 | 0.00 | 0.00 | 0.00 | 33 | 1018.1 |
| 20260904192103 | 81 | 147 | 2.0 | 6.0 | 0.00 | 0.00 | 0.00 | 33 | 1018.1 |
| 20260904191604 | 81 | 148 | 2.0 | 5.0 | 0.00 | 0.00 | 0.00 | 33 | 1018.1 |
| 20260904191104 | 81 | 160 | 2.0 | 6.0 | 0.00 | 0.00 | 0.00 | 33 | 1018.1 |
| 20260904190605 | 81 | 169 | 2.0 | 5.0 | 0.00 | 0.00 | 0.00 | 34 | 1018.0 |
| 20260904190104 | 81 | 116 | 2.0 | 5.0 | 0.00 | 0.00 | 0.00 | 34 | 1018.0 |
| 20260904185604 | 82 | 173 | 2.0 | 7.0 | 0.00 | 0.00 | 0.00 | 35 | 1018.0 |
| 20260904185104 | 82 | 164 | 2.0 | 6.0 | 0.00 | 0.00 | 0.00 | 35 | 1017.8 |
| 20260904184604 | 82 | 124 | 2.0 | 6.0 | 0.00 | 0.00 | 0.00 | 35 | 1017.8 |
| 20260904183604 | 82 | 160 | 2.0 | 8.0 | 0.00 | 0.00 | 0.00 | 35 | 1017.6 |
| 20260904183104 | 82 | 153 | 4.0 | 7.0 | 0.00 | 0.00 | 0.00 | 34 | 1017.6 |
| 20260904181604 | 83 | 118 | 3.0 | 7.0 | 0.00 | 0.00 | 0.00 | 33 | 1017.6 |
| 20260904181104 | 83 | 149 | 3.0 | 10.0 | 0.00 | 0.00 | 0.00 | 32 | 1017.6 |
| 20260904180604 | 83 | 129 | 3.0 | 8.0 | 0.00 | 0.00 | 0.00 | 32 | 1017.5 |
| 20260904180104 | 83 | 144 | 3.0 | 8.0 | 0.00 | 0.00 | 0.00 | 32 | 1017.5 |
| 20260904175604 | 83 | 160 | 3.0 | 13.0 | 0.00 | 0.00 | 0.00 | 32 | 1017.5 |
| 20260904175103 | 84 | 139 | 3.0 | 7.0 | 0.00 | 0.00 | 0.00 | 31 | 1017.6 |
| 20260904174604 | 84 | 127 | 3.0 | 6.0 | 0.00 | 0.00 | 0.00 | 30 | 1017.6 |
| 20260904174104 | 84 | 134 | 4.0 | 7.0 | 0.00 | 0.00 | 0.00 | 29 | 1017.6 |
| 20260904173604 | 84 | 114 | 5.0 | 5.0 | 0.00 | 0.00 | 0.00 | 29 | 1017.6 |
| 20260904173104 | 85 | 127 | 5.0 | 9.0 | 0.00 | 0.00 | 0.00 | 28 | 1017.6 |
| 20260904172604 | 85 | 144 | 5.0 | 8.0 | 0.00 | 0.00 | 0.00 | 28 | 1017.6 |
| 20260904172104 | 85 | 138 | 3.0 | 10.0 | 0.00 | 0.00 | 0.00 | 28 | 1017.7 |
| 20260904171604 | 85 | 147 | 3.0 | 7.0 | 0.00 | 0.00 | 0.00 | 28 | 1017.7 |
| 20260904170104 | 86 | 141 | 4.0 | 10.0 | 0.00 | 0.00 | 0.00 | 29 | 1017.8 |
| 20260904165103 | 87 | 127 | 3.0 | 7.0 | 0.00 | 0.00 | 0.00 | 28 | 1017.8 |
| 20260904164604 | 87 | 158 | 3.0 | 8.0 | 0.00 | 0.00 | 0.00 | 28 | 1017.8 |
| 20260904164104 | 87 | 145 | 4.0 | 8.0 | 0.00 | 0.00 | 0.00 | 28 | 1017.8 |
| 20260904163604 | 87 | 124 | 5.0 | 8.0 | 0.00 | 0.00 | 0.00 | 28 | 1017.8 |
| 20260904162104 | 88 | 124 | 3.0 | 6.0 | 0.00 | 0.00 | 0.00 | 28 | 1018.0 |
| 20260904161108 | 89 | 136 | 3.0 | 6.0 | 0.00 | 0.00 | 0.00 | 28 | 1018.0 |
| 20260904160604 | 89 | 134 | 3.0 | 7.0 | 0.00 | 0.00 | 0.00 | 27 | 1018.1 |
| 20260904160104 | 90 | 145 | 3.0 | 7.0 | 0.00 | 0.00 | 0.00 | 27 | 1018.1 |
| 20260904155604 | 91 | 122 | 3.0 | 9.0 | 0.00 | 0.00 | 0.00 | 27 | 1018.1 |
| 20260904155104 | 91 | 145 | 4.0 | 8.0 | 0.00 | 0.00 | 0.00 | 27 | 1018.0 |
| 20260904154604 | 91 | 134 | 5.0 | 7.0 | 0.00 | 0.00 | 0.00 | 26 | 1018.0 |
| 20260904154104 | 91 | 148 | 3.0 | 6.0 | 0.00 | 0.00 | 0.00 | 26 | 1018.0 |
| 20260904153604 | 91 | 123 | 3.0 | 8.0 | 0.00 | 0.00 | 0.00 | 24 | 1018.0 |
| 20260904153104 | 92 | 131 | 4.0 | 8.0 | 0.00 | 0.00 | 0.00 | 24 | 1018.0 |
| 20260904152604 | 92 | 125 | 5.0 | 8.0 | 0.00 | 0.00 | 0.00 | 24 | 1018.0 |
| 20260904152104 | 92 | 165 | 5.0 | 6.0 | 0.00 | 0.00 | 0.00 | 25 | 1018.2 |
| 20260904151604 | 92 | 136 | 5.0 | 9.0 | 0.00 | 0.00 | 0.00 | 24 | 1018.2 |
| 20260904151104 | 92 | 145 | 5.0 | 9.0 | 0.00 | 0.00 | 0.00 | 24 | 1018.2 |
| 20260904150604 | 92 | 128 | 5.0 | 10.0 | 0.00 | 0.00 | 0.00 | 24 | 1018.1 |
| 20260904150105 | 92 | 135 | 5.0 | 13.0 | 0.00 | 0.00 | 0.00 | 23 | 1018.1 |
| 20260904145104 | 92 | 128 | 5.0 | 9.0 | 0.00 | 0.00 | 0.00 | 25 | 1018.2 |
| 20260904144104 | 93 | 131 | 5.0 | 9.0 | 0.00 | 0.00 | 0.00 | 26 | 1018.2 |
| 20260904143604 | 93 | 136 | 5.0 | 14.0 | 0.00 | 0.00 | 0.00 | 26 | 1018.2 |
| 20260904143104 | 93 | 132 | 5.0 | 14.0 | 0.00 | 0.00 | 0.00 | 26 | 1018.2 |
| 20260904142604 | 94 | 119 | 5.0 | 10.0 | 0.00 | 0.00 | 0.00 | 27 | 1018.2 |
| 20260904142104 | 94 | 134 | 5.0 | 12.0 | 0.00 | 0.00 | 0.00 | 26 | 1018.4 |
| 20260904141604 | 94 | 121 | 5.0 | 9.0 | 0.00 | 0.00 | 0.00 | 26 | 1018.4 |
| 20260904141104 | 94 | 132 | 5.0 | 9.0 | 0.00 | 0.00 | 0.00 | 27 | 1018.4 |
| 20260904140604 | 94 | 126 | 6.0 | 9.0 | 0.00 | 0.00 | 0.00 | 27 | 1018.5 |
| 20260904140104 | 94 | 122 | 5.0 | 13.0 | 0.00 | 0.00 | 0.00 | 27 | 1018.5 |